Погода в Новоселицком

Россия / Ставропольский край     44°45′04″N   43°26′00″E
темп.,
°C
ветер,
м/с
пор.,
м/с
влажн.,
%
обл.,
%
осадки,
мм/ч
давл.,
гПа
погр.,
м
1 декабря, ср
ср100:00+10ю41189100 0.9 997299
03:00+9зсз61570100 4.0 998990
06:00+8ююз5873100 0.5 997279
09:00+8з172455100 0.5 1002831
12:00+7зсз142260100 0.0 1003882
15:00+6зсз101852100 0.0 10061154
18:00+4сз614550 0.0 1008652
21:00+3ю466612 0.0 1010117
2 декабря, чт
чт200:00+2ююз4870100 0.0 1011174
03:00+2ююз488399 0.0 1012169
06:00+2зсз3997100 1.1 1015459
09:00+3зюз5787100 1.9 1018444
12:00+6з686258 0.0 10191243
15:00+7зюз510557 0.0 10201368
18:00+4юз36755 0.0 1022116
21:00+3ююз37753 0.0 1022121
3 декабря, пт
пт300:00+3ююв37805 0.0 1022134
03:00+2ююв37820 0.0 1022148
06:00+1юв398330 0.0 1022170
09:00+3юв4117599 0.0 1022320
12:00+7юв5864100 0.0 1020490
15:00+8вюв4767100 0.0 1019492
18:00+5юв33835 0.0 102037
21:00+4ююв11875 0.0 102010
4 декабря, сб
сб400:00+3юз118675 0.0 102010
03:00+3ююз1180100 0.0 102010
06:00+3ююз116799 0.0 102010
09:00+5ююз11527 0.0 101911
12:00+11ююв11355 0.0 1017184
15:00+11вюв3340100 0.0 101649
18:00+7юв33515 0.0 101629
21:00+6юв225595 0.0 101611
5 декабря, вс
вс500:00+5ююв335596 0.0 101420
03:00+5ююв2253100 0.0 101412
06:00+5ююз1150100 0.0 101410
09:00+7ююз0046100 0.0 101510
12:00+9ссв1138100 0.0 1015137
15:00+9всв2344100 0.0 101688
18:00+7ююв3557100 0.0 101798
21:00+6юв3563100 0.0 101782